Theta_e
304 304 304 304 304 304 304 305 305 305 306 307 307 307 307 307 308 310 317 325 326 324 324 326 327 324 321 320 317 316 316 317 324 330 331 329 323 327 326 325 324 321 326 326 330 336 337 337 340 342 342 343 342 342 341 339 339 339 345 338 326 326 332 338 344 349 349 343 346 344 343 344 343 345 343 345 346 347 348 344 343 344 344 348 351 351 351 352
303 303 304 303 304 304 304 305 305 305 305 306 307 307 307 307 308 309 318 326 325 323 324 327 326 323 320 317 316 317 318 320 326 329 328 328 328 328 324 323 323 321 325 330 332 334 335 334 336 339 340 341 339 339 338 337 338 338 344 335 327 333 335 339 343 343 344 345 345 343 344 344 344 346 345 348 348 346 347 347 346 346 347 349 351 351 350 351
303 303 303 303 304 304 304 305 304 305 305 306 306 307 307 307 307 309 319 326 323 323 325 325 322 319 317 316 317 318 321 327 330 327 325 326 327 329 326 323 322 322 326 330 332 333 334 332 335 337 338 339 337 335 334 335 337 336 338 333 331 336 336 339 341 341 344 344 344 344 344 343 344 347 346 347 348 348 349 349 349 350 350 349 349 350 349 350
303 303 303 304 304 304 304 304 305 305 305 305 306 307 307 307 307 309 321 325 322 323 324 322 318 316 316 316 318 320 325 332 330 329 330 326 324 326 325 323 321 321 325 328 331 334 332 331 333 335 336 339 336 334 335 334 335 335 335 333 333 335 337 340 340 341 342 343 343 342 342 342 343 345 345 349 351 349 349 348 349 351 350 349 348 348 348 349
303 303 303 304 304 304 305 304 305 305 305 305 305 307 306 308 307 310 323 324 321 322 320 318 316 315 317 317 318 324 330 329 328 336 334 329 325 324 324 322 320 320 325 328 331 333 332 330 330 333 336 338 336 333 335 334 333 335 336 336 336 335 337 340 340 341 341 342 342 341 342 342 344 345 346 359 363 352 348 348 348 350 348 348 348 346 348 347
303 303 303 304 304 304 304 304 305 304 305 305 305 307 306 308 307 312 324 322 320 321 317 316 316 315 316 318 319 326 332 324 328 337 331 331 326 325 323 321 320 322 327 328 331 334 331 329 329 332 335 337 336 332 333 334 333 334 335 335 336 337 338 339 339 340 341 342 342 342 343 342 347 348 346 358 361 351 347 349 348 349 349 348 348 346 346 346
303 304 304 304 304 304 305 305 305 305 305 305 305 306 306 308 307 314 324 321 318 318 317 317 315 315 316 321 325 328 330 325 330 331 328 329 325 326 324 321 321 323 328 328 331 333 329 328 329 332 335 336 334 331 333 332 331 334 334 335 336 337 338 338 338 340 341 341 341 341 344 345 347 349 347 350 352 349 348 349 348 349 350 348 346 346 346 346
303 304 304 304 304 304 304 305 305 305 305 305 306 306 306 308 306 315 324 319 317 317 316 316 315 315 315 324 332 332 329 326 331 331 326 325 323 325 323 322 323 324 330 329 329 331 329 327 328 333 335 335 333 331 333 332 332 334 335 335 337 338 338 338 338 339 341 340 341 343 345 347 346 348 348 348 348 347 348 348 349 348 348 348 346 346 348 348
303 304 304 304 304 304 304 305 305 305 306 305 306 306 306 307 306 315 323 318 316 317 315 314 314 315 316 323 329 327 331 329 331 330 325 325 323 322 322 326 326 326 329 329 330 331 328 328 329 333 334 334 333 332 332 331 333 335 336 336 336 338 338 338 338 338 339 339 342 344 344 345 346 346 348 347 347 347 348 347 348 349 348 348 348 348 349 349
303 304 304 304 304 304 304 305 305 305 306 305 306 306 306 307 306 314 324 318 315 317 314 313 313 315 319 326 326 323 331 333 333 330 326 327 324 322 323 327 328 327 328 328 331 330 329 329 330 333 334 334 332 331 331 330 334 334 334 337 338 338 337 338 338 338 339 341 341 342 343 344 345 347 347 347 347 347 347 347 347 349 349 347 348 349 350 350
303 304 303 304 304 304 304 304 305 305 306 306 306 306 306 308 306 314 324 318 315 317 314 313 312 315 323 328 325 326 330 332 335 334 331 329 325 323 325 327 327 327 328 328 329 330 329 329 332 334 332 332 331 331 330 331 334 334 335 337 336 337 337 338 339 339 340 341 341 342 343 344 344 346 347 346 346 346 346 347 347 348 349 348 349 350 351 352
303 304 304 304 304 304 304 304 305 305 306 306 306 306 306 307 306 314 323 318 316 317 314 313 311 317 327 329 326 329 329 332 333 332 332 330 325 323 325 326 326 326 327 328 329 329 328 330 333 333 333 331 330 330 331 334 336 335 337 337 336 339 339 339 339 340 341 341 342 343 342 343 347 345 346 346 346 346 345 347 347 347 349 349 351 350 351 352
303 304 304 304 304 304 304 305 305 305 306 305 307 307 307 307 307 316 323 319 317 317 315 314 316 323 330 329 329 328 327 331 332 331 332 332 327 323 324 326 326 326 326 328 328 329 329 331 333 333 334 331 330 332 332 335 336 336 338 337 337 335 336 339 339 341 341 340 342 341 332 335 346 346 345 346 346 346 346 348 348 347 349 349 350 350 351 352
303 304 304 304 304 304 304 305 305 305 306 306 307 307 307 307 310 319 324 319 318 317 316 318 322 329 333 330 332 328 326 329 332 332 331 332 330 324 324 325 326 326 326 327 328 328 328 332 334 334 333 331 332 332 332 336 336 337 336 337 338 327 328 341 340 340 341 338 341 341 329 333 346 346 346 347 346 346 347 349 348 347 348 348 349 350 351 350
303 304 304 304 304 304 304 305 305 306 305 306 306 307 307 307 314 322 324 320 320 318 317 322 325 331 335 333 335 330 326 327 331 332 329 331 330 326 324 325 326 326 326 327 327 328 329 331 333 333 333 331 332 332 333 336 336 337 330 326 333 325 327 342 339 340 342 338 340 339 331 336 345 346 346 347 346 347 347 348 348 348 348 347 349 351 351 350
303 303 303 304 304 304 304 304 305 305 305 306 306 308 307 308 318 323 324 323 321 318 319 327 331 332 335 335 333 330 327 325 328 330 329 331 330 326 325 325 327 326 326 327 327 329 330 333 333 332 332 331 331 333 333 330 328 336 331 319 325 325 326 337 338 339 341 339 342 338 334 339 344 345 345 347 347 346 347 347 349 350 349 348 349 351 351 351
303 303 303 303 304 304 304 305 305 305 306 306 306 309 308 312 322 324 325 324 321 321 322 329 336 334 337 336 331 332 328 324 327 329 330 331 330 327 326 327 327 326 327 327 328 330 331 332 332 332 332 330 331 334 327 319 317 326 330 322 325 329 326 329 334 338 339 340 343 340 339 341 343 345 344 346 347 345 345 346 348 350 350 350 349 350 352 352
303 303 303 303 304 304 304 305 305 305 306 306 307 309 308 317 326 326 329 328 325 328 328 330 333 330 333 334 331 333 327 326 329 329 329 329 329 327 326 326 326 327 326 327 330 332 331 332 333 331 331 329 331 331 320 317 320 320 323 321 323 328 328 329 333 337 340 340 341 340 341 343 343 344 344 345 345 344 345 345 346 350 351 351 351 352 352 353
303 303 303 303 303 304 304 304 305 305 306 307 307 308 313 324 330 329 331 334 333 337 335 334 335 329 329 331 331 332 327 329 330 329 328 328 328 326 326 326 326 326 325 328 332 331 331 332 330 326 326 328 330 330 326 328 331 328 327 325 321 322 326 337 339 338 341 339 340 340 340 343 344 343 344 344 344 344 345 345 345 348 350 350 352 354 353 354
303 303 303 303 304 304 304 305 305 305 306 306 308 313 321 331 339 336 335 336 335 338 334 332 334 329 329 331 329 329 328 330 330 329 328 327 328 326 325 325 325 325 326 329 331 330 331 329 326 324 326 329 329 331 333 334 335 335 333 327 326 323 324 338 342 339 341 337 338 343 342 344 344 344 345 343 344 345 343 345 346 347 348 349 352 353 354 355
303 303 303 303 303 304 305 305 305 306 306 305 310 318 323 327 332 332 332 334 334 335 332 332 332 331 330 330 329 328 329 330 329 328 328 328 329 326 324 325 325 325 326 330 329 330 331 326 326 328 330 330 330 332 333 334 335 335 332 325 324 324 325 336 342 339 340 336 336 343 343 343 345 343 344 343 343 344 344 344 346 347 347 348 351 352 352 355
302 303 303 303 303 304 304 305 306 306 305 309 316 321 320 324 327 327 328 329 329 329 330 331 331 330 329 330 331 330 329 330 328 328 328 328 328 326 324 324 325 325 326 328 329 329 328 325 327 330 330 330 330 331 332 333 335 332 330 323 320 324 329 333 339 340 339 334 334 342 342 343 347 345 343 344 343 344 344 343 345 347 348 349 351 352 352 354
302 303 302 303 303 303 305 306 306 308 309 317 325 326 323 327 325 325 328 328 329 328 327 330 331 329 329 330 331 330 330 329 327 327 327 326 327 326 325 324 325 326 326 327 329 324 320 325 331 330 329 331 330 330 332 332 332 330 327 319 317 325 327 322 331 341 339 334 335 341 341 341 347 345 344 344 343 343 344 343 343 346 348 348 348 350 352 354
302 303 303 303 303 303 305 305 307 315 320 325 327 324 326 326 324 328 329 329 330 330 327 329 330 329 328 330 331 329 328 329 328 327 327 325 326 326 325 325 325 326 326 327 329 326 324 328 331 330 330 331 329 329 331 328 326 328 328 322 320 326 327 324 332 339 336 335 338 337 331 334 344 346 345 345 343 343 343 344 345 346 347 347 347 349 351 352
303 302 303 303 303 304 304 308 316 319 319 323 322 323 326 325 328 330 330 331 329 329 329 328 329 330 329 330 331 329 328 328 328 327 328 326 325 326 326 325 325 325 327 327 328 328 329 331 331 331 330 329 329 329 330 327 321 321 327 328 327 330 331 332 335 333 325 324 332 333 321 325 340 345 352 354 349 344 344 345 345 348 349 347 348 348 349 351
303 303 303 303 303 303 305 313 318 314 313 319 321 323 326 327 330 328 331 331 326 327 329 328 330 329 328 329 329 330 327 326 329 328 329 326 326 327 326 326 326 325 327 328 328 328 330 332 332 331 330 330 329 327 329 330 319 315 324 330 330 332 331 330 331 325 316 317 332 334 321 320 334 342 353 358 354 349 346 345 345 349 351 347 347 348 349 350
303 303 303 303 303 304 309 315 314 312 316 318 318 320 323 325 326 326 332 324 320 327 329 327 328 327 327 329 329 328 324 325 329 329 329 328 326 328 326 326 326 325 329 328 321 323 330 332 330 330 330 330 327 325 329 331 320 316 327 332 330 331 329 329 327 321 319 322 329 333 324 320 326 338 350 353 351 351 348 346 345 348 350 346 346 347 349 349
303 303 303 304 303 304 309 312 314 317 317 316 317 318 320 323 324 326 330 321 322 327 330 326 327 326 326 329 329 329 326 326 327 327 329 328 326 327 326 326 327 326 330 325 316 322 332 331 330 330 328 328 327 327 330 331 324 323 331 333 330 330 329 329 325 320 323 322 316 323 325 318 319 334 350 350 347 349 349 348 347 347 349 348 346 345 347 349
303 303 303 304 303 305 313 315 318 319 314 317 320 320 321 323 324 325 327 325 329 326 329 326 327 327 326 329 329 329 327 327 327 327 330 328 327 327 326 326 328 326 329 327 322 326 330 330 330 330 327 328 329 331 330 330 327 328 332 333 331 332 330 330 326 319 319 318 312 316 321 317 316 326 341 344 340 344 349 346 347 347 349 350 348 345 346 349
303 303 304 305 306 310 316 316 317 315 314 321 322 322 324 323 324 324 322 327 328 326 328 325 326 327 327 329 330 329 328 326 327 327 329 328 327 327 327 329 328 328 329 329 328 329 330 329 330 330 329 330 330 330 330 329 329 330 332 332 329 329 330 328 325 319 315 314 314 316 319 319 316 320 332 340 340 342 346 346 346 347 347 348 350 347 345 350
303 303 304 306 307 310 313 314 314 314 315 320 321 321 323 324 324 321 323 329 323 324 328 325 327 327 327 329 330 328 327 327 327 327 328 328 327 327 327 327 326 325 325 325 327 329 330 328 328 330 329 330 330 329 330 330 329 330 332 329 322 321 322 319 318 317 314 313 316 318 322 319 313 318 331 341 344 344 345 346 346 347 347 347 349 346 346 350
304 304 304 306 306 308 310 311 311 312 311 315 317 317 321 323 321 319 326 326 318 322 327 326 327 327 328 329 329 328 326 327 327 327 327 326 325 327 326 325 325 319 313 316 320 323 326 328 329 331 330 330 330 326 326 329 329 330 328 322 315 313 314 314 313 315 314 314 317 321 321 317 314 323 334 338 341 342 343 344 346 347 346 347 348 347 348 350
304 304 304 304 305 308 309 308 308 308 310 316 316 316 320 319 318 320 325 323 318 323 327 327 328 328 328 327 327 327 326 327 328 327 328 327 325 326 325 327 328 321 314 315 315 313 317 326 330 330 328 329 329 324 320 323 327 327 322 316 313 313 314 314 314 315 315 314 317 321 320 314 315 325 337 338 336 339 341 342 345 346 347 347 347 346 347 348
305 304 305 305 309 311 309 307 310 313 317 320 316 317 320 317 320 322 324 325 324 326 327 327 327 327 327 327 327 326 325 326 329 327 327 327 324 323 324 326 328 326 323 318 314 312 311 317 326 328 326 328 331 329 325 326 327 327 328 324 315 313 315 315 314 314 314 313 315 319 318 313 313 324 337 337 334 338 338 338 344 346 349 349 346 347 346 345
305 305 308 313 315 315 314 313 316 319 322 321 315 317 317 315 319 321 324 328 327 329 329 327 328 325 324 327 328 327 325 324 327 328 328 326 322 322 324 326 326 328 324 315 314 316 310 313 326 330 329 330 330 331 333 330 324 326 330 324 316 318 319 315 314 314 313 313 314 315 316 319 324 333 339 335 334 336 335 337 340 342 351 355 350 349 348 346
309 311 314 318 318 318 320 320 321 322 323 320 315 316 317 319 321 322 327 330 328 330 329 326 326 321 317 322 326 327 326 325 328 327 325 326 324 324 326 326 327 327 325 319 318 318 311 314 329 331 329 331 330 330 333 328 321 324 324 317 321 329 326 314 312 315 313 312 314 314 314 320 326 331 336 336 335 335 335 335 334 339 353 358 354 351 350 348
313 316 317 319 318 317 322 325 323 323 323 319 315 316 320 323 324 324 328 330 328 330 327 320 321 319 314 316 321 326 326 325 326 324 321 323 322 324 327 327 326 327 327 326 323 323 318 314 327 332 327 330 332 329 332 331 327 324 317 320 327 330 327 319 313 313 313 312 314 312 312 315 316 321 334 338 335 335 336 335 335 340 349 352 354 355 353 351
314 318 320 322 318 314 321 326 324 323 322 318 316 320 323 323 324 324 326 328 328 330 328 319 320 323 317 314 317 326 326 320 322 323 320 320 321 323 328 327 326 327 329 328 326 328 324 314 321 333 329 329 332 328 325 329 332 328 323 328 327 317 316 317 313 313 314 314 314 312 313 313 313 318 330 335 335 337 338 338 337 337 341 345 349 353 357 359
317 321 325 327 319 316 324 326 323 323 319 315 317 321 323 323 324 324 325 328 329 328 328 325 324 324 321 319 320 325 326 320 322 322 319 319 320 323 327 326 326 327 328 331 329 331 329 316 314 328 332 329 330 325 318 320 328 330 328 331 328 320 316 316 315 314 313 313 315 314 313 313 318 327 333 335 340 342 342 343 340 335 338 343 343 346 357 363
319 320 323 325 321 321 325 325 322 323 318 316 318 321 323 324 323 324 325 327 329 328 328 329 329 326 324 325 324 326 327 325 324 323 321 322 321 322 327 327 327 328 327 331 331 329 332 322 312 323 331 325 322 323 321 321 324 324 320 320 322 322 321 319 318 315 313 313 314 315 313 314 326 340 340 338 341 340 340 344 343 336 334 340 344 345 352 359
317 318 319 323 325 323 326 324 322 322 319 318 319 320 323 324 322 324 325 326 329 329 329 330 331 328 327 326 325 326 328 327 325 324 323 324 322 321 327 328 328 329 327 330 331 329 329 323 315 316 320 317 320 329 329 328 328 326 321 319 320 320 318 315 315 315 314 314 313 315 313 315 330 344 342 339 338 335 336 338 340 338 335 339 344 344 350 359
318 319 320 325 328 326 326 323 322 323 320 319 320 320 323 325 323 323 324 326 329 328 329 330 330 330 331 329 328 328 327 326 325 324 323 326 326 325 328 330 330 330 329 328 330 330 331 327 318 314 318 323 328 332 330 328 331 330 327 327 327 324 317 311 311 314 314 314 315 313 312 318 336 344 341 340 340 336 336 337 336 337 338 340 339 337 349 363
319 320 321 326 328 326 325 323 322 322 321 320 320 321 322 323 323 323 325 327 328 328 328 329 329 329 330 330 331 331 328 325 325 326 325 327 329 328 330 330 328 330 331 329 329 332 331 326 318 314 322 329 330 331 332 330 330 327 326 330 328 324 322 319 319 320 316 313 314 313 312 319 336 348 343 341 341 336 334 337 336 337 339 339 340 341 350 365
316 318 319 322 326 326 324 322 322 321 322 322 321 322 322 322 322 323 324 326 328 328 327 328 329 329 329 330 332 332 328 322 323 327 328 328 328 330 331 330 330 331 329 329 331 329 324 323 319 314 316 320 322 324 325 326 327 325 326 330 328 328 328 325 325 326 319 314 315 315 313 320 337 352 345 338 337 335 335 336 335 339 342 337 341 350 357 367
317 320 319 317 322 325 323 323 323 323 324 323 322 323 323 322 322 323 325 326 327 328 328 328 328 328 329 330 330 332 331 325 323 327 328 326 329 330 329 330 331 328 329 339 341 329 324 327 325 314 310 313 315 315 316 319 323 324 326 328 329 330 328 323 321 319 315 316 317 315 315 325 341 346 340 337 337 335 337 337 335 340 344 343 347 354 362 369
317 323 324 320 320 323 323 323 322 323 325 325 325 325 323 323 323 323 325 327 327 328 328 327 327 327 328 330 330 331 332 330 327 328 329 328 328 328 330 332 328 332 349 356 343 331 329 330 330 324 317 315 317 322 327 325 321 318 321 324 327 330 330 327 320 315 317 319 317 319 325 328 335 341 339 338 338 338 339 339 339 344 345 348 354 355 360 368
319 324 325 325 325 323 322 322 321 321 323 326 327 327 325 323 323 324 326 327 327 328 328 327 327 327 326 329 329 328 330 332 331 330 329 328 328 327 330 329 328 347 365 353 332 332 330 322 327 333 327 323 327 331 332 328 322 319 320 322 325 329 329 324 317 321 331 321 313 328 341 328 329 340 341 340 346 347 344 340 340 347 346 344 352 355 355 359
322 322 321 323 325 324 323 322 321 320 321 323 327 329 328 326 325 325 326 327 327 327 327 327 327 326 327 328 328 328 330 331 330 332 331 329 330 330 330 328 330 347 352 334 326 334 328 319 325 327 324 326 329 329 330 330 328 327 326 324 325 327 325 322 319 327 336 322 316 336 346 332 332 339 336 339 346 344 342 341 340 343 344 343 348 353 349 350
318 315 316 319 321 323 323 324 325 326 324 325 327 327 328 329 329 326 325 326 326 326 326 327 326 326 327 328 328 331 332 326 326 334 340 338 338 336 330 327 330 337 335 327 331 335 325 322 329 326 321 325 329 329 331 329 326 327 328 328 328 328 325 325 325 327 332 328 328 341 346 338 335 337 336 338 344 343 340 342 340 340 344 346 346 347 343 344
315 313 315 317 319 321 322 324 327 328 327 328 328 328 329 331 332 329 326 325 326 327 326 326 327 326 327 328 329 331 332 330 331 337 340 339 340 338 333 329 330 331 330 328 331 333 325 323 330 329 319 320 326 328 328 328 326 324 325 329 329 328 326 326 327 327 328 329 331 340 343 341 337 339 341 340 347 351 344 341 343 344 344 344 342 342 342 344
316 313 313 315 319 322 321 324 327 328 328 329 330 330 329 331 332 329 327 326 326 327 328 326 327 328 327 328 329 330 332 334 337 337 336 336 337 337 335 333 331 330 331 330 330 331 328 325 329 328 315 313 322 327 326 328 326 319 320 325 326 325 325 326 329 330 329 329 332 332 329 334 337 340 340 340 345 347 344 343 345 346 343 342 344 346 348 350
315 313 313 315 320 323 321 323 324 326 327 327 327 329 327 328 328 327 330 332 328 326 329 330 330 331 331 331 333 334 333 333 334 334 333 333 333 332 333 333 332 331 331 331 330 331 332 327 324 321 314 313 322 325 324 323 319 315 319 325 327 328 328 328 330 333 333 335 333 326 325 335 343 340 337 339 340 341 343 341 340 343 345 345 346 348 347 348
Wind_Speed
26 27 28 28 28 28 29 29 28 28 28 28 29 30 31 31 32 32 31 29 27 27 27 24 21 19 18 18 17 14 13 12 11 12 15 20 16 12 11 7 7 10 11 9 10 12 11 11 10 10 10 8 8 6 7 6 5 4 4 6 2 3 4 10 14 7 3 8 8 9 10 10 11 11 9 9 10 10 9 10 10 12 15 18 22 24 24 22
26 27 28 28 28 28 29 29 29 29 29 29 29 30 31 32 32 33 32 29 27 27 25 21 17 15 16 15 13 10 11 11 13 18 25 26 18 14 14 10 8 9 12 11 12 13 11 10 10 9 8 7 6 5 5 5 5 4 4 4 2 4 4 10 14 11 7 7 7 9 10 10 13 11 5 5 10 10 11 12 13 16 18 21 24 23 22 21
25 27 27 28 28 29 29 30 30 29 29 29 29 30 31 31 32 33 32 28 27 26 22 17 13 13 13 12 9 6 8 11 13 20 28 27 22 21 17 13 11 11 14 14 13 13 12 13 9 8 8 7 7 7 5 4 4 5 4 2 4 5 7 11 11 12 11 9 9 10 9 9 13 12 4 4 9 10 11 11 13 17 19 20 20 21 22 20
25 26 27 28 29 29 29 30 30 30 30 30 30 30 31 31 32 33 31 28 25 22 18 13 11 11 10 9 6 4 7 11 10 13 19 21 23 25 21 16 13 13 16 16 15 14 12 14 11 8 8 8 9 6 5 4 3 2 1 1 4 5 7 11 10 12 11 9 10 9 9 10 13 13 8 6 5 7 10 11 13 16 19 20 19 19 20 19
25 26 27 28 29 29 29 30 30 31 30 31 31 31 31 31 32 32 29 26 23 19 15 11 10 10 9 7 3 4 7 6 1 4 6 16 20 21 22 19 15 15 16 16 17 15 13 13 12 10 8 8 9 3 5 6 2 1 5 5 5 5 6 10 10 11 10 9 9 8 9 11 13 11 11 12 2 3 8 11 15 16 18 19 19 18 18 18
25 26 27 28 29 29 29 30 31 31 31 31 31 31 31 31 31 31 27 24 20 16 12 9 8 8 8 5 2 3 6 4 5 7 2 14 17 18 20 18 15 16 16 15 15 14 13 12 12 11 7 10 11 6 9 8 2 1 6 3 2 6 7 10 9 9 9 9 9 8 9 9 13 12 12 12 6 5 11 13 15 16 18 19 18 17 16 15
25 26 27 28 29 29 30 30 31 31 32 32 32 32 31 31 31 30 25 22 18 14 12 9 7 7 6 4 3 4 7 12 10 1 4 11 16 17 18 16 16 17 16 15 14 13 12 12 13 10 9 11 10 9 11 7 2 2 5 2 2 7 8 9 9 8 8 10 9 8 10 8 11 12 13 14 11 8 14 14 15 16 18 19 17 16 15 15
26 26 27 28 29 30 30 30 31 31 32 33 33 32 32 31 31 28 23 20 15 13 12 8 6 5 4 3 5 6 11 16 9 7 7 8 12 15 17 15 16 18 17 16 15 14 12 13 14 11 12 10 6 8 7 2 2 4 5 4 5 8 9 9 8 9 9 9 9 10 11 10 11 11 11 13 11 13 15 14 15 15 16 16 15 16 14 13
26 27 28 28 29 30 30 31 31 32 32 33 33 33 32 31 31 27 21 17 14 13 13 9 6 4 3 4 6 8 9 9 10 8 5 8 11 16 18 15 17 18 17 17 18 17 12 12 14 13 11 7 6 5 4 3 2 6 5 5 7 9 10 9 9 10 9 8 9 12 12 12 11 10 11 12 12 13 14 14 14 14 15 14 14 14 13 12
26 27 28 29 29 30 31 31 31 32 32 33 33 33 33 31 31 26 19 16 12 13 13 8 4 3 4 5 8 8 2 7 11 7 6 9 14 18 18 17 19 19 17 17 18 18 14 13 13 12 10 8 7 5 5 6 4 7 5 7 8 10 9 8 10 10 9 9 10 12 12 12 11 8 9 11 12 12 14 13 13 13 13 13 13 13 11 11
27 28 29 29 30 30 31 31 32 32 33 33 34 34 33 32 31 25 18 14 11 12 11 5 0 2 6 8 9 6 2 5 9 9 9 12 17 20 20 18 19 20 18 16 18 19 17 17 13 9 7 5 7 6 5 7 8 6 8 10 9 9 9 9 11 9 7 9 12 12 12 12 10 9 10 12 12 12 13 13 13 13 11 12 13 13 9 9
28 29 29 30 30 30 31 31 32 33 33 33 33 34 33 33 31 23 16 13 10 10 9 3 3 1 7 8 12 13 5 3 5 8 9 12 16 20 20 18 19 20 19 16 16 18 19 17 13 10 6 4 7 5 4 8 10 9 9 9 10 10 9 9 9 8 7 8 11 11 10 10 9 10 12 13 12 12 12 12 13 12 10 11 12 11 9 8
28 29 30 30 30 30 31 31 32 33 34 34 33 33 34 34 30 20 14 11 9 9 8 2 4 2 8 6 14 24 16 7 4 7 9 12 15 18 18 18 19 20 21 18 15 16 18 14 12 12 9 8 5 5 3 7 8 8 9 7 9 8 7 9 7 8 8 7 9 8 4 8 9 11 12 12 13 13 12 11 11 11 10 10 10 9 9 9
29 30 31 31 31 31 31 31 32 33 34 34 33 33 34 35 28 17 12 10 8 7 6 4 2 4 7 8 17 20 17 9 5 9 11 13 16 17 18 19 19 20 21 19 16 15 15 12 12 12 10 12 6 5 2 6 7 6 9 6 6 5 6 9 8 9 9 6 8 5 1 6 10 11 12 11 13 12 11 11 11 11 11 10 10 9 9 10
29 31 31 32 32 32 31 32 32 33 34 35 34 32 34 34 24 14 11 9 7 6 7 7 6 6 6 12 17 10 14 10 9 12 14 16 18 17 19 20 19 21 20 18 16 13 12 12 11 10 9 13 10 6 6 6 6 8 7 6 6 5 7 10 9 10 8 7 9 4 2 8 10 11 12 11 12 12 11 11 11 11 12 10 10 9 9 9
30 31 32 32 33 33 32 32 32 33 34 35 34 32 34 32 20 13 12 9 7 5 5 7 9 11 7 6 4 8 13 13 13 14 14 18 19 17 20 20 19 20 20 19 18 12 10 11 10 9 10 10 8 7 8 6 6 7 5 6 7 6 7 8 9 11 10 9 9 4 2 7 10 11 12 12 12 12 11 10 11 11 11 11 10 9 9 9
31 32 33 33 33 33 33 32 33 34 34 36 35 32 32 29 19 13 10 7 5 5 7 10 9 10 9 7 3 7 11 14 15 15 16 19 18 18 19 16 15 17 18 18 14 9 11 11 8 8 10 7 6 8 8 7 6 6 6 7 7 8 6 7 9 10 9 7 8 7 4 7 12 12 13 14 13 13 12 11 12 10 9 10 9 10 10 10
32 33 33 33 34 34 34 33 33 34 35 36 34 32 32 26 16 9 6 3 1 4 9 13 12 6 7 11 12 10 11 15 16 16 17 18 19 19 19 15 13 16 16 13 9 9 11 9 9 8 9 8 8 9 7 9 9 8 8 7 7 9 8 7 8 9 10 6 5 6 6 9 13 12 12 14 14 13 13 12 12 11 10 10 9 10 10 10
33 34 33 34 34 34 35 33 33 34 35 36 34 32 28 18 7 5 7 6 4 4 6 7 10 6 6 9 14 12 11 14 15 16 18 18 19 19 19 16 14 15 13 9 10 12 10 8 10 9 9 10 10 12 11 13 14 13 12 10 8 10 8 7 6 8 11 8 6 7 5 10 12 12 12 13 13 12 12 13 12 12 12 10 10 9 10 11
33 34 34 34 34 35 35 33 33 33 34 37 33 24 16 9 2 2 7 9 9 11 14 9 12 12 12 7 11 12 13 14 12 15 18 17 17 19 18 15 14 13 12 10 11 13 11 9 10 10 11 12 14 17 15 12 14 16 14 11 11 11 8 9 8 9 10 8 8 8 7 10 11 12 12 12 12 12 12 13 12 13 12 11 11 11 12 11
34 35 35 35 35 36 35 35 33 32 35 35 24 10 8 10 8 5 3 8 12 16 20 18 14 16 15 10 7 13 12 11 12 14 18 18 16 15 14 14 14 11 13 14 12 12 12 10 12 14 14 14 16 18 16 14 14 16 14 10 11 11 8 12 11 11 11 7 6 8 8 8 9 12 12 12 12 11 11 12 12 14 13 11 13 13 12 11
35 35 36 36 35 36 36 35 33 33 35 25 10 8 11 14 14 13 11 10 13 16 18 19 20 17 14 16 9 14 9 10 14 14 18 19 15 13 14 15 14 11 14 15 11 11 11 11 14 16 15 14 15 17 18 18 17 11 9 8 8 9 9 11 13 11 9 5 5 8 8 6 7 9 10 11 11 9 10 12 11 13 13 11 13 14 13 13
35 35 37 35 35 38 36 35 34 33 27 13 9 12 14 16 17 17 12 10 12 15 15 16 18 16 15 15 9 14 11 12 14 15 19 20 14 13 14 15 15 13 15 15 13 11 10 12 16 17 15 16 16 14 16 16 11 6 6 7 6 10 11 9 11 12 10 6 6 7 8 8 8 8 9 11 11 9 10 12 11 12 13 12 13 13 14 15
35 35 36 35 37 37 35 37 31 22 15 11 14 19 20 17 15 15 11 9 11 13 16 17 16 14 15 15 10 13 13 11 13 15 20 19 14 13 14 15 15 14 14 17 18 14 12 13 17 17 15 17 16 16 14 13 6 5 11 10 7 11 13 9 11 13 11 9 8 7 6 5 6 6 7 8 10 10 10 11 11 11 12 12 13 13 14 15
35 35 36 36 36 36 38 33 19 15 18 15 19 20 17 12 10 12 10 7 9 10 15 17 14 13 16 17 14 13 12 11 14 14 18 19 17 12 12 12 11 13 16 20 19 14 14 15 16 17 16 16 16 14 15 12 8 8 13 16 15 12 13 14 16 15 9 9 9 8 6 4 7 5 2 2 6 10 11 11 12 10 11 11 11 13 13 14
36 35 36 36 35 39 34 16 11 23 24 17 16 14 12 9 10 12 9 6 8 9 12 13 10 13 18 16 13 12 12 12 13 15 19 20 19 13 10 9 8 13 16 17 13 9 12 17 17 16 16 17 16 11 11 11 8 7 11 16 20 13 14 18 18 15 7 6 9 10 8 4 7 8 5 1 6 9 10 12 12 10 11 11 10 11 12 13
36 34 36 35 34 36 24 10 20 26 16 13 17 19 16 13 13 11 7 6 7 7 10 11 8 14 17 15 14 12 10 10 13 17 18 20 20 14 12 11 9 12 12 10 9 7 12 17 18 17 17 17 15 10 9 12 10 9 11 15 14 15 12 12 11 12 7 6 7 12 12 6 6 10 13 12 8 10 11 12 11 10 12 12 12 12 13 13
36 35 36 34 33 30 19 16 21 17 15 18 20 20 19 17 14 9 6 5 3 4 8 8 7 10 13 14 17 13 10 11 13 15 19 22 21 14 13 14 12 14 14 11 10 9 13 15 16 19 17 14 11 10 12 14 12 11 7 7 12 14 14 12 7 7 8 7 7 10 12 8 5 8 13 16 14 12 15 15 13 12 13 13 13 14 15 14
36 36 35 36 35 25 13 13 15 16 20 21 19 19 19 17 12 6 5 6 3 2 5 5 6 9 11 13 17 15 13 12 12 13 18 21 21 16 12 13 15 16 17 15 12 10 12 14 14 17 16 12 9 11 14 14 13 13 8 10 13 14 10 10 7 5 5 7 8 8 8 6 4 5 10 12 14 14 15 14 13 13 14 13 13 14 14 13
37 36 35 37 32 20 11 13 21 20 19 18 18 19 18 13 7 6 7 5 4 3 6 5 6 11 13 14 15 16 16 13 11 14 16 17 20 18 12 12 14 13 15 16 14 13 13 13 12 11 12 11 9 12 14 15 16 13 9 12 12 9 6 7 6 6 6 6 8 10 9 8 7 6 9 11 14 16 14 12 13 15 15 14 13 14 14 12
38 37 35 35 30 20 13 15 22 17 15 16 17 17 13 7 5 8 7 4 5 6 9 7 10 14 16 16 13 14 18 14 13 16 15 14 17 16 12 11 10 10 11 12 12 15 16 14 10 8 10 12 11 13 14 17 17 10 5 9 7 4 4 5 5 6 6 6 8 12 14 13 9 7 9 12 17 20 17 15 16 17 16 15 14 15 14 11
39 37 35 34 32 25 17 19 22 20 20 19 15 12 8 6 7 8 7 4 3 6 9 9 13 15 17 18 13 15 17 13 13 16 15 13 14 13 13 10 9 9 10 9 10 14 14 14 13 11 13 15 14 12 13 15 15 9 6 8 7 5 5 5 6 6 7 8 9 12 14 11 8 8 9 10 14 18 18 16 18 19 18 16 17 16 13 12
40 38 35 31 28 26 26 26 26 23 20 17 11 7 6 7 9 9 11 9 4 8 9 10 15 16 17 17 13 15 17 14 14 16 16 16 14 14 17 16 14 11 9 10 11 11 9 9 14 14 12 15 15 11 9 9 9 8 7 7 7 7 6 6 7 6 7 9 10 14 12 8 7 6 8 10 11 14 18 16 16 19 20 16 16 17 14 14
41 37 33 28 24 26 28 27 23 18 14 11 7 6 9 10 9 10 14 12 7 8 10 10 14 17 17 15 14 15 14 13 16 16 15 16 13 13 16 18 18 13 9 10 10 10 9 6 11 13 10 13 16 12 10 10 8 8 9 9 9 7 5 6 6 6 7 7 10 14 10 6 4 0 2 4 1 6 12 11 7 10 15 13 13 16 16 15
39 32 27 24 23 24 24 23 20 13 9 8 6 7 11 9 8 12 12 11 12 11 7 6 11 14 14 14 15 18 14 12 17 17 14 15 13 13 14 15 18 16 12 10 8 10 12 9 12 15 12 15 15 13 11 13 10 9 9 10 9 9 8 6 7 7 7 6 6 7 5 3 2 1 1 1 5 5 4 5 6 6 10 11 8 13 14 13
35 29 22 19 21 20 19 18 17 15 10 7 7 9 10 8 10 11 9 11 13 9 7 7 11 12 12 12 13 19 18 13 15 15 12 14 15 15 15 14 18 20 15 10 7 9 11 9 15 18 15 17 17 15 12 11 8 8 9 10 11 10 9 7 8 9 8 7 5 5 6 5 4 3 7 8 6 5 3 1 4 5 11 13 9 11 12 11
29 24 18 19 21 19 18 16 17 16 11 7 9 10 9 11 14 14 12 13 12 9 11 10 10 10 11 11 11 17 19 14 14 13 11 13 14 16 18 15 18 22 20 14 8 9 10 8 16 23 18 17 18 17 15 12 10 8 8 10 10 11 9 5 6 7 7 8 5 6 9 8 6 4 7 11 9 9 8 5 5 6 10 11 11 12 13 12
23 17 16 22 24 19 17 19 18 14 8 7 11 12 11 12 15 17 17 16 15 12 11 10 8 11 13 11 11 17 18 13 13 12 11 11 12 16 19 15 18 22 24 20 11 9 10 8 12 23 19 16 17 16 14 13 15 13 8 9 9 8 7 5 5 5 6 7 5 7 10 8 6 4 8 12 10 10 10 7 5 7 9 9 9 11 12 9
19 10 11 15 16 17 19 21 16 10 8 9 10 11 12 14 17 20 20 17 15 12 10 11 8 11 14 12 12 16 17 15 13 11 10 9 10 17 20 14 16 22 25 22 13 7 9 8 7 19 19 15 14 12 11 10 13 14 11 8 7 6 6 6 5 4 6 6 5 7 8 4 2 4 11 12 9 9 10 8 5 4 6 9 8 8 9 9
13 6 7 6 9 19 21 18 11 8 8 10 11 11 12 15 17 21 23 19 15 11 9 12 11 9 12 15 15 14 15 16 15 11 10 11 11 16 20 16 16 21 24 23 15 9 8 8 6 13 17 14 11 10 12 11 11 11 10 8 7 6 5 6 7 6 6 6 4 6 5 2 5 6 11 10 7 8 8 8 6 2 3 7 8 8 7 9
8 5 7 4 14 22 19 11 8 8 9 10 12 14 14 14 15 18 23 22 16 11 10 14 13 8 8 12 14 13 13 14 16 12 9 13 13 11 16 18 16 19 20 18 15 11 8 7 6 8 11 12 11 13 15 15 13 11 8 8 8 7 6 7 6 7 6 6 5 6 3 4 6 6 10 9 6 8 7 4 6 6 4 2 4 6 6 6
6 5 6 7 17 18 12 7 7 8 8 10 12 14 15 13 15 17 18 19 15 11 11 13 14 11 10 11 13 14 13 13 14 14 10 14 16 11 15 21 19 18 16 13 15 15 9 4 7 9 9 12 14 15 16 17 16 13 11 10 9 7 6 7 6 6 6 7 8 6 3 3 4 5 9 8 5 8 8 3 1 4 5 4 3 2 4 6
5 8 10 6 15 15 9 7 9 9 9 12 14 17 17 15 15 16 16 16 14 11 11 11 12 13 13 13 14 15 15 13 14 16 14 14 17 15 17 22 22 19 15 12 14 13 7 3 6 8 8 11 14 12 15 17 15 14 12 12 11 10 10 9 7 4 5 8 8 5 3 4 3 4 7 8 5 6 8 5 2 1 3 3 2 1 1 4
6 9 13 12 14 15 10 8 9 9 10 14 16 18 19 16 16 16 16 15 12 10 12 12 13 13 13 14 14 14 14 12 15 18 16 13 14 17 20 22 22 19 13 11 11 9 6 4 5 6 6 7 9 9 11 15 13 10 11 14 16 16 15 12 8 4 4 7 7 5 3 5 4 4 5 5 3 3 4 5 5 5 3 2 2 3 2 4
7 5 7 12 14 13 10 9 10 10 12 15 17 18 18 16 17 18 16 14 12 13 12 12 14 15 13 14 14 14 15 12 9 15 16 14 13 16 20 20 18 19 13 10 11 10 8 6 5 6 7 8 9 8 9 10 11 10 13 16 17 18 19 13 7 6 6 5 6 5 2 5 6 4 4 4 3 0 2 1 3 3 3 4 3 3 4 5
6 4 5 7 9 10 9 10 12 12 11 12 13 16 18 17 16 15 14 12 13 15 15 13 15 16 14 15 15 13 13 14 11 9 13 15 12 12 18 19 20 18 8 4 7 9 8 8 8 7 7 10 8 7 9 11 10 12 14 17 16 15 16 12 7 6 6 4 5 5 5 7 9 9 5 4 5 5 3 4 4 3 2 2 3 4 4 6
3 5 5 4 4 9 10 10 12 12 12 12 9 11 17 19 16 13 11 10 13 15 16 16 16 15 14 15 14 13 12 13 14 13 13 15 13 12 16 19 20 13 4 3 10 10 6 8 13 14 12 14 15 9 10 13 12 12 14 17 17 17 17 14 10 7 5 5 5 8 11 12 11 12 10 7 7 7 7 6 4 2 3 4 3 5 7 8
4 6 9 10 7 7 7 8 11 13 16 16 10 11 16 18 17 12 10 12 15 15 14 14 16 17 15 14 12 11 12 13 13 13 11 11 11 11 14 16 14 11 5 9 14 9 6 9 15 17 16 16 20 20 17 15 14 15 15 17 19 20 20 18 15 13 8 6 5 6 11 12 11 11 13 9 6 5 2 2 1 2 3 5 5 4 6 8
5 6 8 11 10 10 11 13 13 13 15 15 11 12 14 14 17 15 11 11 14 15 16 14 14 17 18 15 11 9 10 10 10 10 8 8 10 7 10 13 11 12 10 14 11 6 7 9 11 15 14 16 21 23 22 20 16 16 18 19 19 20 21 20 19 20 15 12 11 8 9 9 8 8 10 6 2 3 2 3 3 5 5 6 6 6 8 8
6 5 7 10 11 11 12 14 13 11 11 11 10 12 12 14 16 15 12 13 13 13 15 16 16 17 18 17 14 12 11 9 9 9 10 12 11 6 6 9 10 11 13 13 9 8 8 7 8 11 12 16 20 19 18 19 18 18 18 20 21 20 20 20 18 18 16 15 13 6 7 5 6 6 7 3 2 3 4 2 4 4 5 6 7 8 8 7
10 9 8 9 9 10 10 11 11 8 7 8 9 9 12 14 14 11 9 11 13 12 11 15 17 14 17 19 13 10 10 7 7 8 9 10 8 5 6 7 9 12 12 11 10 9 10 8 8 10 10 12 14 15 19 21 21 21 21 22 21 17 15 16 14 14 14 11 6 2 3 6 5 5 5 3 3 6 5 5 4 3 4 5 6 7 6 5
13 11 9 7 8 9 10 10 10 8 7 8 9 10 13 14 14 12 8 5 11 13 10 11 10 6 11 13 3 4 8 7 8 8 8 10 9 7 7 6 9 11 10 10 8 7 8 8 8 9 9 10 14 19 20 18 15 14 15 17 17 15 16 16 14 15 14 8 4 4 5 3 2 1 3 4 3 4 2 1 1 2 3 3 4 7 7 6
Wind_Direction
353 352 352 352 352 351 351 350 350 347 345 343 342 341 340 340 338 337 335 331 330 325 320 315 308 305 308 313 316 314 309 306 291 265 244 252 254 247 255 256 255 232 215 228 238 248 242 226 229 230 232 226 225 234 223 217 232 236 249 259 218 102 82 123 142 166 151 114 122 119 114 115 112 109 113 127 115 115 128 113 115 119 115 115 118 126 128 130
353 352 352 351 351 350 349 349 349 347 345 343 342 341 340 339 338 337 334 331 330 325 322 318 314 313 312 317 317 318 319 301 276 261 251 253 255 250 251 242 243 227 210 222 232 236 240 230 212 212 233 230 212 197 205 216 214 222 249 261 72 82 79 102 130 142 127 134 143 119 115 119 115 102 73 104 113 116 113 107 113 111 111 117 123 129 129 135
353 353 351 350 350 349 348 348 348 347 346 344 341 340 339 339 338 336 333 331 330 328 325 323 325 321 316 321 320 331 329 300 269 259 256 250 241 239 242 233 231 221 208 217 231 233 246 255 229 204 227 245 217 178 180 209 205 211 232 248 70 77 84 90 115 131 139 149 132 114 119 124 112 102 72 90 121 127 117 115 118 117 124 130 130 132 135 143
354 353 351 350 349 348 348 347 347 347 345 344 341 340 339 339 337 336 333 330 331 330 328 334 334 326 325 327 332 358 315 284 265 261 254 238 229 229 227 226 225 215 211 223 242 243 250 264 263 225 215 243 231 174 151 177 209 242 7 23 86 89 94 106 129 131 133 127 114 124 129 117 102 103 111 95 109 131 127 135 133 132 135 136 137 138 143 147
354 353 351 350 349 348 347 346 346 345 345 343 341 340 339 339 337 335 332 330 333 331 332 341 334 332 334 328 356 2 299 270 4 348 243 213 216 219 217 220 219 210 211 228 249 253 248 256 266 244 217 240 242 185 166 182 264 348 74 47 66 80 92 105 114 111 118 120 117 124 104 97 95 90 83 76 59 163 131 136 131 136 139 139 143 142 148 150
354 353 351 350 349 348 347 346 345 344 344 342 341 340 338 338 337 334 331 330 332 329 333 339 336 336 329 338 15 310 267 258 19 22 167 189 198 208 210 212 212 206 210 230 245 248 244 243 253 245 221 232 240 225 191 174 258 246 104 74 66 90 100 99 105 113 124 119 105 99 91 101 110 106 101 108 206 201 119 125 129 137 139 139 144 145 152 150
354 352 351 349 348 348 347 345 344 343 342 342 340 339 338 337 336 334 330 330 332 328 331 333 331 321 315 351 338 264 236 266 292 353 132 170 188 202 204 203 203 201 210 225 232 238 237 230 237 242 236 238 233 210 193 164 181 195 102 110 108 101 114 113 122 129 116 105 98 98 101 105 107 115 129 140 180 153 110 119 128 135 139 141 146 149 151 149
353 352 350 349 348 347 347 345 343 342 341 340 339 338 338 337 336 333 328 329 331 326 327 327 319 302 294 316 287 253 241 255 240 162 156 174 190 198 194 195 197 198 210 221 225 233 231 226 231 234 239 249 240 202 189 160 118 134 105 104 109 107 119 118 119 120 106 98 98 97 94 88 87 102 117 119 128 118 113 125 130 138 144 143 149 151 149 154
352 351 350 349 347 346 345 344 343 340 340 339 337 337 336 336 336 332 327 327 328 325 326 322 309 281 262 285 270 267 259 222 168 159 171 176 190 191 185 186 189 195 210 219 226 235 230 225 229 232 249 270 247 197 141 228 111 103 119 125 132 125 124 128 127 119 105 99 104 103 97 94 98 103 101 103 112 117 122 128 134 146 147 145 152 148 149 162
350 350 349 348 347 345 345 343 342 340 339 337 336 335 333 334 335 331 324 322 324 324 323 319 307 245 240 259 250 258 251 137 148 170 172 165 176 180 187 189 186 194 210 216 223 233 232 226 225 230 263 288 232 164 127 211 119 98 158 141 130 129 134 140 123 108 102 113 117 113 112 115 122 117 105 111 119 125 129 131 141 150 147 149 152 143 154 172
349 348 348 347 346 345 343 341 340 339 337 336 334 333 332 331 332 329 321 317 321 322 323 323 314 216 251 258 248 243 158 155 167 163 161 163 169 178 193 195 190 198 208 215 220 228 233 232 238 234 241 268 222 176 137 165 129 138 168 131 134 148 148 138 116 111 120 126 121 121 128 125 121 115 115 123 129 136 136 138 147 150 149 152 148 141 163 176
348 348 346 346 345 343 342 340 339 337 336 335 332 331 330 328 330 326 316 314 317 321 324 326 110 165 273 270 245 239 255 279 200 179 174 170 177 187 195 196 196 202 207 216 220 228 238 240 260 263 233 240 219 169 128 159 145 152 157 140 158 161 145 135 124 131 133 127 131 140 135 116 106 112 122 131 137 140 137 145 149 145 151 148 139 145 170 170
347 346 345 343 343 342 341 339 337 336 334 333 331 330 328 326 327 323 312 309 308 316 309 279 113 225 274 272 247 241 245 273 225 200 190 177 189 192 197 204 200 204 211 219 218 222 239 251 275 268 251 260 222 105 108 165 132 144 164 161 163 156 152 149 141 143 133 123 142 161 145 107 111 124 134 143 143 141 142 152 152 146 153 147 139 156 172 163
345 345 344 342 341 340 340 337 336 335 332 331 330 329 326 324 325 319 307 298 296 307 282 241 159 257 257 255 267 247 221 239 229 203 201 188 190 188 197 208 203 206 215 227 230 223 232 249 275 265 245 256 232 117 174 154 121 180 177 156 172 172 167 160 155 153 136 137 164 185 187 118 123 134 141 149 144 143 150 154 157 154 154 149 147 166 169 159
344 343 342 341 339 338 338 336 335 333 331 329 328 328 325 321 322 316 302 289 284 281 263 259 236 240 260 259 268 233 185 225 237 209 203 190 189 185 193 203 203 207 213 228 235 225 223 230 254 260 238 253 247 189 188 155 155 202 178 168 198 184 166 163 165 169 149 160 186 194 153 130 131 144 147 154 151 147 154 157 162 159 156 156 155 170 167 158
343 342 340 339 338 336 336 335 334 331 329 327 325 327 323 318 317 310 296 281 270 253 245 259 222 216 264 286 237 182 188 220 226 209 196 191 193 185 188 199 203 207 213 225 230 216 210 222 239 252 241 250 255 206 171 159 188 187 179 202 198 184 180 166 169 183 170 168 179 169 156 142 138 152 156 158 159 154 155 157 162 162 160 159 160 171 164 158
342 341 339 338 336 334 334 334 333 330 327 325 324 325 321 314 309 301 288 273 265 244 238 266 258 223 252 285 237 205 206 207 207 200 190 191 197 187 185 197 202 204 214 224 233 213 198 218 231 238 240 231 232 219 169 168 205 175 187 222 191 185 192 173 178 184 179 180 177 170 177 147 141 157 165 162 167 166 159 155 160 166 165 160 163 169 161 160
341 339 338 336 334 333 332 332 332 330 326 322 323 324 318 310 303 292 268 237 176 231 243 262 272 258 250 250 242 231 203 196 194 187 185 191 197 192 185 195 199 198 209 214 225 218 198 209 222 221 231 219 212 226 191 179 200 176 191 223 191 188 192 188 193 181 181 185 183 191 174 144 146 160 169 169 175 173 162 159 159 163 166 165 170 165 158 162
340 338 337 335 333 331 329 330 331 330 326 320 323 325 316 305 298 261 227 203 179 230 256 223 203 239 288 227 219 225 194 181 181 179 185 192 195 188 184 196 200 197 207 202 196 208 200 198 215 220 225 212 203 224 218 191 185 178 199 218 192 199 193 177 213 199 179 178 194 208 172 153 160 165 173 177 180 176 165 165 163 163 169 171 174 166 159 166
340 338 336 334 332 330 328 328 328 328 326 321 324 328 312 294 300 207 207 210 218 247 275 257 197 227 269 231 197 202 177 167 179 184 184 193 196 183 181 197 199 197 209 202 189 197 203 202 209 218 220 207 201 221 235 222 191 176 197 215 189 204 194 164 219 229 187 190 200 187 170 171 168 165 177 183 183 179 169 169 168 166 169 173 174 169 166 168
338 337 336 334 331 329 326 326 325 324 323 320 320 317 290 299 323 340 300 253 244 248 264 267 243 240 260 269 213 175 166 171 191 193 182 192 203 185 178 194 195 195 207 208 195 193 208 212 208 214 219 207 203 218 227 234 221 189 191 212 190 197 196 170 197 214 191 204 208 168 161 176 174 171 178 185 186 183 176 174 175 169 168 176 174 169 171 169
337 337 335 333 332 329 325 324 321 318 318 315 291 251 270 293 308 322 317 290 277 269 265 259 252 248 254 263 219 155 167 190 191 197 182 186 204 190 176 190 198 194 201 208 197 192 210 218 211 213 219 212 206 224 230 226 231 220 199 217 204 186 186 181 186 191 183 198 212 173 159 171 190 186 178 186 190 184 181 181 178 169 167 180 175 167 170 166
335 336 334 334 332 328 325 322 318 316 311 290 241 255 271 289 303 312 306 284 284 279 268 253 242 235 232 243 195 157 198 203 189 196 181 184 205 197 182 190 202 197 197 208 203 195 204 216 218 211 219 222 205 216 246 246 241 260 249 230 214 192 188 185 178 183 190 204 215 192 181 182 189 197 192 193 192 185 187 185 184 176 170 180 178 171 171 166
334 335 334 334 332 328 327 322 316 316 309 271 261 269 269 281 301 313 307 281 279 271 261 254 241 227 221 224 188 176 211 205 196 194 177 185 205 201 196 194 203 204 200 207 209 208 205 211 224 215 213 230 221 199 217 247 236 226 250 241 221 209 201 185 170 179 198 210 215 205 199 181 172 202 208 197 197 193 190 188 188 182 174 182 180 175 175 170
334 335 334 334 333 330 326 321 318 332 328 292 270 274 278 288 311 321 314 282 271 260 242 240 236 220 212 214 197 189 211 206 206 196 172 190 206 201 203 197 204 212 202 205 211 216 210 206 220 225 212 218 235 214 194 222 230 204 233 247 257 236 183 167 169 175 199 212 204 207 221 187 162 195 256 287 236 212 193 191 194 183 173 186 187 176 178 173
333 334 334 334 333 332 330 325 325 331 322 288 279 308 322 322 333 325 306 271 272 255 212 203 203 193 193 204 194 188 212 206 206 199 173 190 211 206 207 197 205 220 205 203 213 222 216 203 203 226 227 212 227 233 198 210 235 222 209 229 266 259 176 171 176 178 208 218 189 202 229 205 160 182 186 184 266 249 214 194 195 188 175 187 195 178 176 175
333 332 332 332 332 335 335 309 317 323 306 286 311 330 328 323 332 321 290 264 263 231 185 171 164 171 180 193 180 182 214 184 191 205 179 186 208 211 215 200 194 222 214 203 211 219 227 209 190 209 229 221 218 223 205 202 224 246 202 193 241 260 230 220 203 183 197 212 199 206 217 218 183 188 181 177 212 250 237 210 199 197 184 189 198 186 181 180
331 330 332 330 327 329 315 286 304 305 280 297 315 319 318 319 317 300 274 267 246 165 159 156 143 166 188 188 175 192 223 174 180 204 180 183 203 211 220 212 203 217 218 216 210 202 223 221 196 198 218 228 212 204 208 203 218 245 238 206 221 238 261 272 240 194 187 203 231 222 213 223 213 178 175 184 198 219 229 217 204 205 197 193 200 195 187 183
329 328 330 327 324 325 308 275 280 283 289 303 311 312 310 305 299 277 256 263 262 144 153 157 146 174 197 184 176 202 223 190 184 190 173 182 205 218 231 225 215 215 217 225 223 200 212 229 218 199 207 225 205 200 211 207 221 230 236 261 230 207 242 266 252 262 239 223 245 237 212 221 231 171 172 193 204 212 218 212 205 207 203 198 201 202 193 180
328 326 327 327 323 326 332 282 266 282 305 306 308 311 301 287 277 244 235 242 256 199 150 157 171 177 189 181 181 207 216 203 188 179 172 181 202 216 236 235 225 222 217 222 230 221 206 218 236 214 204 220 203 203 214 209 226 229 211 245 236 181 206 253 257 282 278 249 247 245 228 222 237 206 186 203 207 203 203 204 208 207 202 198 198 205 199 180
326 322 323 322 312 309 318 280 264 286 317 313 313 310 290 264 240 247 232 218 257 200 152 166 178 174 187 187 185 206 212 209 191 177 174 179 193 206 223 229 228 230 220 214 226 231 213 198 214 218 207 216 204 204 215 208 216 227 209 239 248 165 187 239 243 245 255 254 243 243 235 230 242 229 203 209 205 196 191 197 205 202 199 196 196 206 203 181
323 320 316 311 302 291 271 260 273 294 310 314 314 301 277 230 227 242 228 224 231 175 170 185 177 176 192 194 193 201 205 210 197 179 176 184 190 198 212 215 205 212 216 208 211 226 224 196 183 196 208 215 209 199 212 211 201 199 210 226 231 208 196 218 228 223 237 250 245 247 248 242 248 237 214 216 208 191 182 190 199 196 197 196 193 199 199 182
322 318 311 304 298 281 265 269 281 289 296 301 296 278 257 237 234 228 232 239 170 159 196 192 178 183 191 194 198 196 200 206 194 179 180 192 194 194 210 219 209 211 215 208 207 214 220 187 176 193 202 211 222 208 197 207 189 185 211 219 219 215 197 208 227 233 239 244 238 241 252 260 257 233 207 221 221 186 175 190 200 193 193 198 191 188 192 188
320 316 311 305 294 277 270 274 276 276 282 278 264 250 238 236 239 236 237 237 221 217 218 190 180 185 191 202 200 190 202 206 190 184 183 191 201 196 204 219 217 219 221 209 206 203 209 190 182 202 193 191 226 232 189 187 191 194 216 226 222 216 207 214 220 225 235 241 232 227 230 235 242 191 179 247 296 142 169 183 181 175 178 185 185 180 187 191
320 317 313 301 285 274 269 264 253 247 250 245 241 239 231 227 235 242 242 236 238 243 238 205 192 187 191 208 203 190 203 212 188 188 193 191 203 202 196 210 215 216 219 212 200 197 211 207 186 203 199 179 211 239 193 183 198 196 210 233 232 210 202 220 242 247 256 262 245 237 237 200 157 65 232 266 61 100 163 151 130 135 139 142 163 173 183 197
321 320 311 282 268 264 256 245 226 215 221 231 231 230 230 231 233 237 241 238 240 258 282 246 210 201 192 200 210 195 196 215 191 182 201 198 201 209 201 201 209 214 221 214 190 193 214 205 176 191 205 184 200 234 205 182 200 188 194 228 245 241 222 218 239 249 263 269 246 234 250 222 189 222 207 190 165 151 154 162 178 150 127 136 160 175 186 206
320 317 303 273 264 252 228 207 194 199 213 222 228 234 235 234 236 243 254 255 253 275 290 256 211 216 206 190 210 199 188 206 197 181 203 202 198 209 207 202 205 215 227 224 204 200 220 217 172 181 201 186 193 230 223 198 207 202 191 203 226 256 260 247 242 233 235 251 236 219 239 230 209 216 178 170 171 161 160 194 205 155 134 152 173 180 189 204
309 303 290 271 262 243 207 182 179 192 208 219 232 242 245 242 241 245 253 262 258 249 262 262 212 207 216 200 201 200 189 192 195 190 202 200 194 204 207 206 202 211 227 229 220 201 215 238 176 175 192 188 185 220 232 212 215 223 218 200 206 232 233 227 255 261 247 248 245 239 247 245 228 201 151 156 166 163 159 167 178 162 157 170 183 184 185 193
294 284 284 270 243 210 181 171 180 201 211 218 228 234 243 249 249 250 255 268 273 257 256 275 244 203 219 223 204 198 193 193 199 197 199 198 187 194 203 207 200 208 222 226 227 214 215 250 194 169 183 190 180 202 227 213 217 234 243 237 235 237 220 202 205 239 262 251 237 239 239 247 257 158 148 154 160 150 142 140 154 182 173 171 183 189 178 176
293 273 280 273 174 165 165 170 192 214 214 221 229 231 238 243 247 254 258 264 271 261 253 266 252 211 221 232 220 204 193 196 207 202 192 192 183 188 200 206 200 204 217 222 226 233 223 236 219 168 179 197 184 188 217 216 207 220 240 245 233 225 229 215 188 196 238 249 248 251 234 80 46 102 131 137 135 123 120 129 141 192 220 175 168 177 181 184
302 283 270 217 142 150 161 181 211 214 219 227 230 237 243 245 247 249 250 253 255 246 243 258 258 248 252 247 234 220 195 191 209 212 191 190 196 197 199 206 207 200 210 221 222 228 220 204 204 173 179 212 204 183 206 228 224 206 209 234 235 222 225 228 203 192 219 245 251 255 247 85 72 92 114 122 136 134 126 122 142 176 205 154 139 172 189 188
272 263 258 172 150 160 177 204 221 217 225 229 228 237 245 250 253 249 246 249 252 243 233 247 259 265 275 273 260 244 216 192 203 216 207 197 206 211 194 201 211 203 201 212 217 226 228 189 200 191 187 222 217 187 193 224 243 233 208 214 236 238 232 232 218 195 209 232 234 242 248 94 89 104 112 113 116 119 118 109 167 175 150 125 130 193 200 171
256 280 287 219 172 183 213 230 225 224 228 232 234 239 244 246 246 248 248 242 240 236 228 237 252 252 254 264 268 255 231 206 197 212 225 211 206 213 198 195 209 210 200 204 211 220 228 218 223 211 195 215 216 195 191 207 234 247 223 206 221 235 238 243 241 214 220 232 230 234 209 143 100 79 99 101 96 114 123 130 201 201 92 109 144 116 258 150
292 286 287 264 210 202 232 240 228 230 227 230 236 238 243 247 240 239 244 242 240 240 231 232 246 249 248 254 265 267 254 228 193 200 225 223 205 212 205 195 209 216 200 193 201 202 205 213 230 228 209 200 202 205 204 197 205 239 240 215 208 213 223 240 246 217 227 240 232 234 198 137 89 61 92 108 123 150 139 142 185 193 143 162 186 140 147 123
300 267 259 255 225 213 235 241 240 243 231 228 235 237 239 243 240 234 233 238 249 255 247 233 235 245 249 249 258 268 273 269 217 197 216 222 206 210 207 196 207 222 212 189 192 202 202 195 209 235 226 205 196 208 222 209 191 210 240 236 220 210 211 219 228 210 213 223 220 234 208 126 122 124 123 132 140 65 324 265 233 222 159 163 176 142 147 140
305 275 254 243 220 219 235 242 250 258 252 240 239 240 241 240 235 225 221 230 238 247 259 252 234 234 238 244 253 259 266 280 274 231 218 220 211 208 210 200 197 210 218 141 178 213 216 204 212 224 233 238 226 197 212 228 211 195 217 240 248 243 229 218 221 224 205 183 194 202 183 161 163 172 179 190 183 176 200 224 248 293 297 194 171 171 173 152
287 286 301 321 263 231 223 227 239 246 251 251 250 251 250 246 235 210 200 225 231 233 250 256 241 234 231 231 246 264 266 268 274 267 234 219 220 212 209 208 195 175 101 127 195 214 236 228 222 212 213 243 256 245 221 228 231 215 212 226 236 248 252 246 241 229 175 165 203 190 185 191 184 186 204 214 205 192 181 191 219 253 276 270 217 187 183 163
286 291 314 339 324 264 248 251 248 243 241 240 243 253 254 255 250 226 199 218 229 230 242 248 243 247 248 235 232 256 261 251 261 270 245 226 244 230 205 209 193 138 114 222 208 202 242 247 235 222 212 226 249 261 257 243 233 226 227 231 226 228 241 248 252 246 215 203 225 180 182 204 198 196 211 211 217 238 189 113 347 321 285 276 267 230 209 188
323 310 319 336 327 299 298 295 284 271 253 241 239 245 252 262 258 245 225 218 220 224 232 236 241 249 252 242 231 244 255 253 265 286 301 321 315 272 209 206 194 155 178 228 218 192 234 252 243 234 224 220 227 239 250 253 245 230 229 236 234 227 227 234 246 250 244 238 235 194 172 206 216 219 235 240 285 317 43 64 319 304 296 285 280 271 256 223
354 331 321 327 318 304 300 295 287 276 257 244 239 236 241 251 250 243 230 220 219 224 228 231 237 246 249 240 230 231 235 249 279 298 316 331 341 324 249 225 215 189 190 217 220 192 206 236 239 236 238 234 228 226 238 251 254 247 240 239 240 233 226 225 232 241 244 245 243 207 149 190 224 222 232 250 49 84 116 181 252 272 279 276 274 271 267 253
344 329 325 317 304 302 304 295 286 275 254 245 247 244 241 244 250 252 237 227 231 229 232 242 239 243 257 249 235 239 241 250 290 300 308 316 330 324 281 239 228 223 204 206 217 197 193 215 229 233 241 244 241 237 235 235 241 247 247 246 246 242 237 235 232 233 238 239 241 219 195 217 217 207 222 226 161 147 163 208 229 249 269 267 274 285 284 280
337 336 337 320 292 291 291 283 281 278 262 251 249 250 252 251 253 256 257 273 259 234 223 255 258 250 265 258 242 338 311 303 306 307 312 308 298 277 269 252 240 239 215 202 220 216 205 214 225 232 237 238 240 244 242 237 238 245 248 248 249 244 242 247 246 240 238 231 217 228 244 254 71 65 287 273 224 192 185 255 297 329 322 307 291 294 292 280